Date,TemperatureHighF,TemperatureAvgF,TemperatureLowF,DewpointHighF,DewpointAvgF,DewpointLowF,HumidityHigh,HumidityAvg,HumidityLow,PressureMaxIn,PressureMinIn,WindSpeedMaxMPH,WindSpeedAvgMPH,GustSpeedMaxMPH,PrecipitationSumIn
2013-11-1,61.3,52.3,47.2,53.6,49.5,46.4,98,91,69,30.21,29.77,5,0,5,0.00
2013-11-2,51.7,51.0,50.2,50.0,49.5,49.0,96,95,91,29.78,29.59,9,0,9,0.23
2013-11-3,55.1,42.3,36.3,43.8,38.8,34.4,95,88,58,30.04,29.80,9,0,12,0.00
2013-11-4,51.4,37.8,31.7,41.4,34.7,30.7,97,90,54,30.13,30.00,4,0,4,0.06
2013-11-5,51.4,45.6,40.8,49.4,43.4,39.2,100,92,79,30.20,29.95,13,0,13,0.10
2013-11-6,50.6,45.6,40.8,45.5,43.3,39.8,97,92,79,30.26,29.97,5,0,5,0.09
2013-11-7,48.0,46.5,45.5,46.6,45.4,44.1,97,96,88,29.97,29.66,17,2,18,1.18
2013-11-8,51.4,46.5,41.7,45.8,43.4,40.3,96,89,77,30.10,29.92,12,0,12,0.00
2013-11-9,50.2,43.9,37.4,45.1,41.6,36.4,100,92,74,30.10,30.01,5,0,5,0.09
2013-11-10,48.3,45.1,42.8,46.1,43.8,42.0,97,95,91,30.09,30.03,6,0,6,0.00
2013-11-11,59.1,48.1,39.3,52.2,43.0,38.5,100,84,61,30.10,29.93,9,0,9,0.00
2013-11-12,55.6,49.7,48.0,53.9,46.4,41.6,100,89,75,30.31,29.97,7,0,7,0.12
2013-11-13,58.9,50.4,46.0,50.8,47.1,43.8,95,89,70,30.37,30.25,10,0,10,0.00
2013-11-14,49.2,45.2,41.2,47.3,43.9,40.2,97,95,91,30.25,30.00,5,0,6,0.05
2013-11-15,46.2,42.4,40.0,44.6,41.0,38.2,98,95,89,30.00,29.26,24,2,24,0.56
2013-11-16,44.5,41.2,36.8,40.8,38.5,36.0,98,90,80,29.72,29.30,15,1,15,0.28
2013-11-17,48.9,45.0,41.8,47.1,42.3,37.7,96,90,84,29.85,29.72,15,1,15,0.04
2013-11-18,51.2,47.7,45.3,49.2,46.6,43.9,98,96,91,29.85,29.49,19,1,21,0.66
2013-11-19,52.1,42.1,33.5,50.2,39.4,27.1,97,91,74,30.01,29.49,17,0,17,0.19
2013-11-20,47.8,33.5,27.6,36.3,28.5,25.8,95,83,53,30.45,30.01,4,0,6,0.00
2013-11-21,47.4,31.1,24.0,34.3,26.4,22.5,95,84,51,30.62,30.45,5,0,5,0.00
2013-11-22,49.6,32.3,24.7,34.5,27.4,23.2,95,84,53,30.60,30.41,4,0,4,0.00
2013-11-23,52.3,36.6,28.7,37.4,30.0,24.5,90,78,49,30.41,30.14,5,0,5,0.00
2013-11-24,55.8,37.9,28.9,41.4,32.9,27.4,96,83,52,30.20,30.11,4,0,4,0.00
2013-11-25,61.2,42.0,32.6,43.1,34.2,30.0,92,76,40,30.26,30.19,4,0,4,0.00
2013-11-26,58.9,42.1,31.2,41.3,34.6,29.5,96,77,45,30.21,30.05,4,0,4,0.00
2013-11-27,60.1,45.2,37.0,44.2,37.6,33.9,93,75,52,30.05,29.90,4,0,4,0.00
2013-11-28,60.0,41.1,33.7,44.9,36.5,31.6,96,85,51,30.13,29.96,7,0,7,0.00
2013-11-29,46.0,42.9,37.0,43.7,40.3,34.3,97,91,81,30.26,30.12,6,0,6,0.02
2013-11-30,49.2,46.1,42.8,47.0,44.0,41.9,97,92,85,30.29,30.03,11,0,11,0.18